Wind_Speed
29 29 30 30 30 30 30 30 30 29 28 28 28 28 29 29 30 30 31 32 33 34 35 36 36 36 36 36 37 37 38 39 39 40 40 41 42 42
29 30 30 30 29 29 29 29 29 29 28 28 28 29 29 29 30 31 33 33 33 35 35 35 35 36 36 36 36 36 37 38 40 39 40 40 41 41
29 29 28 28 29 29 29 29 29 28 28 28 28 29 30 30 30 30 32 32 32 33 34 34 34 35 35 36 36 36 37 37 38 37 38 38 39 39
26 26 27 27 27 27 28 27 28 28 28 27 28 28 29 29 30 30 30 30 31 32 32 32 32 32 33 34 34 35 35 36 36 36 37 37 37 37
25 25 25 26 26 26 26 26 26 27 27 27 28 28 28 29 29 28 28 28 28 29 29 30 30 31 32 33 33 32 33 34 35 35 35 35 35 35
22 23 23 23 23 24 24 24 24 25 26 26 27 27 27 27 28 27 26 26 26 27 28 29 30 31 32 32 32 32 32 33 32 32 33 33 34 33
20 20 20 20 20 21 21 22 22 23 24 25 25 25 25 25 25 25 26 26 26 27 28 28 29 30 30 30 30 30 30 30 30 31 31 31 31 31
17 17 17 17 17 17 18 18 19 19 20 21 21 22 23 22 23 23 24 25 25 26 26 26 27 27 26 26 27 27 27 27 28 28 29 29 29 29
13 13 13 13 14 14 15 15 15 16 17 18 18 18 19 20 20 21 21 21 22 23 23 24 24 23 23 23 23 24 25 26 26 26 27 27 28 28
9 9 9 10 11 11 11 11 12 12 13 14 14 15 15 16 16 17 17 18 19 19 19 19 19 19 20 21 22 23 23 24 24 24 24 24 25 26
6 6 6 6 6 7 7 8 9 8 8 10 11 11 12 12 14 14 14 14 15 15 15 16 16 18 18 19 20 20 21 21 21 21 22 22 23 24
3 3 3 2 2 3 4 4 5 5 6 7 8 9 10 10 11 11 12 12 12 13 14 14 15 16 17 18 18 18 18 18 19 20 21 21 22 22
2 2 2 1 1 0 1 1 2 2 3 4 5 5 6 7 7 8 8 10 10 11 12 13 13 14 15 16 16 17 17 18 19 20 21 21 21 21
6 6 5 5 5 4 4 4 3 3 3 3 3 3 3 4 5 5 7 7 8 9 10 11 13 13 14 15 16 16 17 18 19 20 20 21 21 21
8 8 8 9 8 8 7 7 6 6 6 5 5 5 5 5 6 6 7 7 8 9 10 11 12 13 14 15 16 17 18 18 18 19 20 21 22 22
11 10 10 10 10 10 9 9 8 8 8 8 8 8 8 8 8 8 9 9 10 10 11 12 13 13 14 15 16 17 17 18 19 20 21 22 23 23
14 13 13 13 13 13 13 12 12 11 11 11 10 10 10 9 10 10 10 11 11 11 12 13 13 14 15 16 16 17 18 19 20 21 22 23 24 24
15 15 15 15 14 14 13 13 13 13 12 12 11 11 11 11 11 12 12 12 13 13 13 14 15 16 17 17 18 19 20 21 22 22 23 24 24 26
16 16 16 15 15 14 14 14 13 13 12 12 12 12 12 12 12 13 14 14 14 15 15 16 17 17 18 19 20 21 22 23 24 25 26 26 27 27
16 16 16 15 15 15 14 14 13 13 13 13 13 13 13 13 14 14 15 15 16 17 17 18 19 20 21 22 22 23 25 26 26 27 27 28 28 28
16 15 15 15 15 14 14 13 13 13 13 13 14 14 14 14 15 16 17 17 18 18 19 20 21 22 23 24 25 26 27 28 29 30 30 30 30 30
14 14 14 14 14 14 13 13 13 14 14 14 14 15 15 16 16 17 18 19 20 21 22 23 24 25 26 27 27 28 28 30 31 32 32 33 34 34
13 13 13 13 13 13 13 13 14 14 15 15 15 16 16 17 18 19 20 21 22 23 24 25 27 28 29 30 31 32 32 32 33 34 35 36 36 36
Wind_Direction
265 265 263 261 260 259 259 259 259 258 256 255 255 256 256 254 254 255 256 257 255 256 261 262 264 264 264 266 269 269 271 272 274 275 275 276 276 277
264 263 263 261 259 258 258 258 258 258 258 257 255 256 257 257 258 257 258 258 258 260 262 263 264 264 265 267 271 271 272 272 274 275 276 277 277 278
263 261 261 259 259 258 258 257 258 258 258 257 257 258 258 258 258 260 260 260 263 264 264 264 265 265 266 268 271 274 273 274 274 275 277 278 279 279
264 262 261 260 258 258 257 256 256 257 257 256 256 258 261 261 260 261 262 264 265 265 265 266 267 268 268 269 271 273 273 274 276 277 279 279 281 281
265 264 263 262 259 258 257 257 257 256 257 257 257 258 261 263 263 265 265 264 265 265 267 269 269 270 271 271 274 274 274 276 278 278 280 281 281 282
264 264 264 263 261 258 257 258 258 257 257 257 257 259 261 262 263 265 266 267 267 267 268 270 272 273 272 273 275 277 278 280 281 282 282 283 284 284
266 264 264 262 262 259 258 259 259 258 257 256 257 260 261 262 264 264 265 267 269 270 271 272 274 275 274 276 278 280 282 282 283 283 284 286 286 286
265 263 262 261 261 259 257 258 259 258 257 258 258 260 261 262 264 265 267 269 271 272 274 277 278 279 277 279 282 282 284 285 285 285 286 287 288 287
265 261 259 258 257 257 255 256 257 257 256 258 259 259 261 263 265 268 271 273 273 277 278 279 281 285 284 284 285 286 287 288 288 288 288 287 287 288
266 262 260 259 256 254 252 256 257 258 257 257 256 258 261 265 266 269 271 274 278 282 284 285 287 289 289 289 289 291 292 292 292 292 291 291 292 292
275 269 266 257 251 249 252 260 260 261 261 254 257 262 268 271 272 273 276 280 282 283 285 289 291 293 294 295 296 295 295 296 297 296 296 297 297 296
289 270 252 242 251 263 269 270 268 267 266 263 268 273 274 277 280 281 282 283 286 289 293 296 296 297 298 300 301 301 301 301 301 300 299 300 300 299
76 91 81 95 118 217 285 290 302 301 297 293 290 292 289 291 293 294 295 295 297 299 302 303 303 304 305 305 304 303 303 305 305 303 302 302 301 300
96 95 88 81 81 82 77 67 59 49 39 26 7 352 343 338 335 331 327 323 319 318 317 315 313 311 309 308 307 307 308 309 307 307 306 306 304 302
95 95 94 90 87 83 79 78 76 69 61 54 47 41 32 26 21 13 4 350 338 331 327 324 322 319 316 314 313 312 312 311 311 310 309 308 307 304
92 94 95 91 87 86 84 79 75 71 68 60 53 51 48 41 30 19 11 4 354 344 339 336 332 329 327 325 322 320 317 315 314 313 311 309 308 306
92 91 90 87 85 83 80 77 73 70 66 63 59 52 46 38 31 24 17 12 5 359 354 349 344 338 331 328 326 324 321 318 315 313 312 311 310 308
91 89 87 85 83 80 76 72 69 66 63 59 55 49 42 35 28 21 14 8 5 0 355 351 345 340 336 332 329 326 323 320 318 316 314 313 310 308
88 87 85 82 79 76 71 66 61 59 56 51 45 38 31 25 19 13 8 4 360 355 351 348 345 342 338 333 329 327 325 323 321 318 316 314 313 310
88 85 83 80 76 72 68 63 58 53 49 44 38 32 27 20 14 9 5 1 357 354 351 348 345 342 339 335 330 327 326 325 324 322 319 317 315 313
84 82 79 76 71 66 62 58 53 47 41 36 31 27 23 18 13 8 5 3 359 355 351 347 343 341 339 336 333 330 328 325 324 322 320 318 316 313
81 78 74 69 63 59 55 50 45 39 34 30 26 22 18 14 9 4 0 358 356 352 349 346 344 340 337 336 334 333 330 328 326 324 322 320 318 315
76 72 66 60 56 52 47 41 37 32 29 26 22 17 12 8 3 359 356 354 352 349 347 344 342 340 337 334 333 331 329 328 326 324 322 320 318 317
Height
5771 5772 5773 5774 5776 5777 5779 5780 5782 5783 5784 5785 5786 5787 5788 5789 5790 5791 5792 5792 5793 5794 5794 5794 5794 5794 5794 5794 5793 5792 5792 5791 5790 5789 5787 5786 5784 5783
5763 5764 5765 5766 5767 5769 5771 5772 5774 5775 5777 5778 5779 5780 5781 5782 5783 5783 5784 5784 5785 5785 5786 5786 5786 5785 5785 5785 5784 5783 5783 5782 5781 5779 5778 5776 5775 5773
5755 5756 5757 5758 5759 5761 5763 5764 5766 5768 5769 5771 5772 5773 5774 5775 5775 5776 5776 5777 5777 5777 5777 5777 5777 5777 5777 5776 5775 5775 5774 5772 5771 5770 5768 5767 5765 5763
5747 5748 5749 5750 5752 5753 5755 5757 5759 5760 5762 5763 5764 5765 5766 5767 5767 5768 5769 5769 5770 5769 5769 5769 5769 5769 5768 5768 5767 5766 5765 5764 5762 5761 5759 5758 5756 5754
5740 5741 5742 5743 5745 5746 5748 5750 5751 5753 5755 5756 5757 5758 5759 5760 5760 5761 5761 5762 5762 5762 5762 5762 5761 5761 5760 5759 5758 5757 5756 5755 5754 5753 5751 5749 5747 5746
5734 5735 5736 5737 5738 5740 5742 5743 5745 5746 5748 5749 5750 5751 5752 5753 5753 5754 5754 5755 5755 5755 5755 5755 5754 5753 5752 5751 5750 5749 5748 5747 5745 5744 5742 5741 5739 5737
5728 5729 5730 5731 5732 5734 5736 5737 5738 5740 5741 5742 5744 5745 5746 5746 5747 5747 5748 5748 5748 5748 5748 5748 5747 5746 5745 5744 5742 5741 5740 5739 5737 5736 5734 5733 5731 5729
5723 5724 5725 5726 5727 5729 5730 5731 5733 5734 5735 5736 5738 5739 5739 5740 5741 5741 5742 5742 5742 5742 5741 5741 5740 5739 5738 5737 5736 5734 5733 5731 5730 5729 5727 5725 5723 5722
5718 5720 5721 5722 5723 5724 5726 5727 5728 5729 5730 5731 5732 5733 5734 5735 5735 5736 5736 5736 5736 5735 5735 5734 5733 5733 5732 5731 5730 5728 5727 5725 5723 5722 5720 5718 5717 5715
5716 5717 5718 5719 5720 5721 5722 5723 5724 5725 5726 5727 5728 5729 5730 5730 5731 5731 5731 5731 5731 5730 5729 5729 5728 5728 5727 5725 5724 5722 5721 5719 5718 5716 5714 5712 5710 5708
5714 5715 5716 5717 5718 5719 5720 5721 5721 5722 5722 5723 5724 5725 5726 5726 5727 5727 5727 5727 5726 5726 5726 5725 5724 5723 5722 5720 5719 5717 5715 5714 5712 5710 5708 5706 5704 5702
5713 5714 5715 5716 5717 5718 5719 5719 5719 5720 5721 5721 5722 5723 5723 5723 5723 5724 5724 5723 5723 5723 5722 5721 5720 5719 5718 5716 5714 5712 5711 5709 5707 5705 5703 5701 5698 5696
5714 5715 5715 5716 5717 5718 5718 5719 5719 5719 5720 5720 5721 5721 5721 5722 5721 5721 5721 5721 5720 5720 5719 5718 5717 5715 5714 5712 5710 5708 5706 5704 5702 5700 5698 5696 5693 5691
5716 5716 5717 5718 5718 5719 5719 5719 5720 5720 5720 5720 5721 5721 5721 5721 5720 5720 5719 5719 5718 5717 5716 5715 5714 5712 5711 5709 5707 5705 5702 5700 5698 5695 5693 5691 5688 5685
5718 5719 5719 5720 5720 5721 5721 5721 5721 5722 5722 5722 5722 5722 5721 5721 5720 5719 5718 5718 5717 5715 5714 5713 5711 5709 5708 5705 5703 5701 5699 5696 5694 5691 5688 5685 5682 5679
5721 5722 5722 5723 5723 5723 5723 5723 5723 5723 5723 5723 5723 5723 5722 5721 5721 5720 5718 5717 5716 5714 5712 5711 5709 5707 5705 5702 5700 5697 5695 5692 5689 5686 5683 5680 5677 5674
5725 5725 5726 5726 5726 5726 5726 5726 5726 5726 5726 5725 5725 5724 5723 5722 5721 5720 5719 5717 5715 5713 5712 5709 5707 5704 5702 5700 5697 5694 5691 5688 5685 5682 5678 5675 5671 5668
5729 5729 5729 5729 5730 5730 5730 5730 5729 5729 5728 5728 5727 5726 5725 5724 5722 5721 5719 5717 5715 5713 5711 5708 5705 5703 5700 5697 5694 5691 5687 5684 5680 5676 5673 5669 5666 5662
5733 5734 5734 5734 5734 5733 5733 5733 5732 5732 5731 5730 5729 5727 5726 5725 5723 5721 5719 5717 5715 5712 5709 5707 5704 5701 5698 5694 5691 5687 5683 5679 5675 5671 5667 5663 5659 5655
5738 5738 5738 5738 5738 5737 5737 5736 5735 5734 5733 5732 5730 5729 5727 5725 5723 5721 5719 5716 5714 5711 5708 5705 5701 5698 5694 5691 5687 5683 5678 5673 5669 5665 5661 5656 5652 5647
5742 5742 5742 5742 5741 5741 5740 5739 5738 5737 5735 5734 5732 5730 5728 5726 5724 5721 5719 5716 5713 5710 5706 5703 5699 5695 5691 5687 5683 5678 5673 5667 5662 5657 5653 5648 5644 5639
5747 5746 5746 5745 5745 5744 5743 5742 5741 5739 5737 5735 5733 5731 5729 5727 5724 5721 5718 5715 5711 5708 5704 5700 5696 5692 5687 5682 5677 5673 5668 5663 5657 5651 5645 5639 5634 5629
5751 5750 5749 5749 5748 5747 5746 5744 5743 5741 5739 5737 5735 5732 5729 5727 5724 5720 5717 5713 5710 5706 5702 5697 5693 5688 5682 5677 5672 5667 5661 5656 5650 5644 5639 5631 5625 5620